TimeAKST,TemperatureF,Dew PointF,Humidity,Sea Level PressureIn,VisibilityMPH,Wind Direction,Wind SpeedMPH,Gust SpeedMPH,PrecipitationIn,Events,Conditions,WindDirDegrees,DateUTC
12:53 AM,39.0,37.0,93,29.69,10.0,SSE,6.9,-,N/A,,Overcast,150,2013-01-26 09:53:00
1:53 AM,39.0,37.0,93,29.70,10.0,SSE,9.2,-,N/A,,Overcast,150,2013-01-26 10:53:00
3:53 AM,39.0,37.0,93,29.70,6.0,SE,11.5,-,0.00,,Overcast,140,2013-01-26 12:53:00
4:53 AM,39.9,37.9,93,29.70,7.0,SE,11.5,-,0.01,Rain,Light Rain,140,2013-01-26 13:53:00
5:21 AM,39.2,37.4,93,29.70,6.0,SE,13.8,-,0.01,Rain,Light Rain,130,2013-01-26 14:21:00
5:51 AM,39.2,37.4,93,29.70,2.5,SE,10.4,-,0.02,Rain,Light Rain,130,2013-01-26 14:51:00
5:53 AM,39.0,37.9,96,29.70,2.5,SE,9.2,-,0.02,Rain,Light Rain,140,2013-01-26 14:53:00
6:02 AM,39.2,37.4,93,29.70,3.0,SE,9.2,-,0.02,Rain,Rain,140,2013-01-26 15:02:00
6:53 AM,39.9,37.9,93,29.71,10.0,ESE,9.2,-,0.09,Rain,Light Rain,120,2013-01-26 15:53:00
7:53 AM,39.9,39.0,97,29.72,10.0,ESE,8.1,-,0.01,Rain,Light Rain,110,2013-01-26 16:53:00
8:53 AM,41.0,39.0,93,29.74,10.0,SE,3.5,-,0.00,,Overcast,130,2013-01-26 17:53:00
9:53 AM,41.0,37.9,89,29.75,10.0,SSE,3.5,-,0.00,,Mostly Cloudy,150,2013-01-26 18:53:00
10:53 AM,42.1,39.0,89,29.75,10.0,SE,8.1,-,N/A,,Overcast,130,2013-01-26 19:53:00
11:53 AM,41.0,37.0,86,29.76,10.0,SE,8.1,-,N/A,,Overcast,130,2013-01-26 20:53:00
12:53 PM,41.0,37.0,86,29.75,10.0,SE,8.1,-,0.00,Rain,Light Rain,140,2013-01-26 21:53:00
1:53 PM,39.9,37.9,93,29.74,10.0,SE,11.5,-,0.01,Rain,Light Rain,130,2013-01-26 22:53:00
2:53 PM,39.9,37.9,93,29.74,10.0,SE,8.1,-,0.01,Rain,Light Rain,140,2013-01-26 23:53:00
3:53 PM,39.9,37.9,93,29.73,10.0,SE,5.8,-,0.01,,Overcast,140,2013-01-27 00:53:00
4:53 PM,39.0,37.0,93,29.73,10.0,SSE,5.8,-,N/A,,Overcast,150,2013-01-27 01:53:00
5:51 PM,37.4,35.6,93,29.73,10.0,SE,3.5,-,N/A,,Overcast,140,2013-01-27 02:51:00
5:53 PM,37.9,36.0,93,29.74,10.0,SSE,3.5,-,N/A,,Overcast,150,2013-01-27 02:53:00
6:53 PM,37.9,36.0,93,29.74,10.0,Calm,Calm,-,0.01,,Overcast,0,2013-01-27 03:53:00
7:53 PM,37.9,33.1,83,29.75,10.0,SSW,3.5,-,0.01,,Overcast,200,2013-01-27 04:53:00
8:53 PM,37.0,34.0,89,29.75,10.0,SSE,3.5,-,0.00,,Overcast,160,2013-01-27 05:53:00
9:53 PM,37.0,33.1,86,29.75,10.0,SSE,3.5,-,N/A,,Overcast,160,2013-01-27 06:53:00
10:53 PM,37.0,33.1,86,29.74,10.0,SE,4.6,-,N/A,,Overcast,140,2013-01-27 07:53:00
11:53 PM,37.0,33.1,86,29.74,10.0,SSE,5.8,-,N/A,,Mostly Cloudy,150,2013-01-27 08:53:00